• In Belgium
  • List of Countries
  • For 7 days
  • Water Temperature
  • Satellite Maps
  • Weather Map
  • Weather Widgets
  • user-avatar
    Login

    Hourly Weather Genk

    Today, 17 October, Wednesday

    Time Temperature Precipitation Wind Pressure Humidity
    00:00 +17°C° 0 mm 2 mps 757 mmHg 67%
    01:00 +16°C° 0 mm 2 mps 757 mmHg 69%
    02:00 +16°C° 0 mm 2 mps 757 mmHg 71%
    03:00 +15°C° 0 mm 1 mps 757 mmHg 73%
    04:00 +15°C° 0 mm 1 mps 757 mmHg 76%
    05:00 +14°C° 0 mm 1 mps 757 mmHg 79%
    06:00 +14°C° 0 mm 1 mps 758 mmHg 81%
    07:00 +15°C° 0 mm 1 mps 758 mmHg 77%
    08:00 +18°C° 0 mm 1 mps 758 mmHg 72%
    09:00 +19°C° 0 mm 1 mps 758 mmHg 67%
    10:00 +21°C° 0 mm 1 mps 758 mmHg 64%
    11:00 +22°C° 0 mm 1 mps 758 mmHg 60%
    12:00 +23°C° 0 mm 1 mps 758 mmHg 56%
    13:00 +23°C° 0 mm 1 mps 757 mmHg 57%
    14:00 +23°C° 0 mm 1 mps 757 mmHg 59%
    15:00 +23°C° 0 mm 2 mps 757 mmHg 60%
    16:00 +20°C° 0 mm 2 mps 757 mmHg 67%
    17:00 +18°C° 0 mm 2 mps 758 mmHg 74%
    18:00 +16°C° 0 mm 2 mps 758 mmHg 82%
    19:00 +15°C° 0 mm 2 mps 758 mmHg 85%
    20:00 +15°C° 0 mm 2 mps 758 mmHg 88%
    21:00 +14°C° 0 mm 2 mps 759 mmHg 90%
    22:00 +14°C° 0 mm 2 mps 759 mmHg 92%
    23:00 +13°C° 0 mm 2 mps 759 mmHg 93%

    Tomorrow, 18 October, Thursday

    Time Temperature Precipitation Wind Pressure Humidity
    00:00 +13°C° 0 mm 2 mps 759 mmHg 94%
    01:00 +13°C° 0 mm 2 mps 759 mmHg 93%
    02:00 +13°C° 0 mm 2 mps 759 mmHg 93%
    03:00 +13°C° 0 mm 2 mps 759 mmHg 92%
    04:00 +13°C° 0 mm 2 mps 760 mmHg 92%
    05:00 +13°C° 0 mm 2 mps 760 mmHg 92%
    06:00 +13°C° 0 mm 2 mps 760 mmHg 92%
    07:00 +13°C° 0 mm 2 mps 760 mmHg 89%
    08:00 +13°C° 0 mm 3 mps 760 mmHg 86%
    09:00 +14°C° 0 mm 3 mps 760 mmHg 83%
    10:00 +16°C° 0 mm 3 mps 761 mmHg 78%
    11:00 +17°C° 0 mm 3 mps 761 mmHg 74%
    12:00 +18°C° 0 mm 3 mps 761 mmHg 70%
    13:00 +17°C° 0 mm 4 mps 760 mmHg 71%
    14:00 +17°C° 0 mm 4 mps 760 mmHg 72%
    15:00 +17°C° 0 mm 4 mps 760 mmHg 73%
    16:00 +15°C° 0 mm 4 mps 760 mmHg 77%
    17:00 +14°C° 0 mm 3 mps 761 mmHg 80%
    18:00 +13°C° 0 mm 3 mps 761 mmHg 84%
    19:00 +12°C° 0 mm 3 mps 761 mmHg 85%
    20:00 +12°C° 0 mm 3 mps 761 mmHg 86%
    21:00 +11°C° 0 mm 3 mps 762 mmHg 87%
    22:00 +11°C° 0 mm 3 mps 762 mmHg 88%
    23:00 +10°C° 0 mm 3 mps 762 mmHg 88%

    Day after tomorrow, 19 October, Friday

    Time Temperature Precipitation Wind Pressure Humidity
    00:00 +10°C° 0 mm 3 mps 762 mmHg 89%
    01:00 +9°C° 0 mm 2 mps 762 mmHg 90%
    02:00 +9°C° 0 mm 2 mps 762 mmHg 91%
    03:00 +8°C° 0 mm 2 mps 762 mmHg 91%
    04:00 +8°C° 0 mm 2 mps 762 mmHg 92%
    05:00 +8°C° 0 mm 2 mps 762 mmHg 93%
    06:00 +8°C° 0 mm 2 mps 762 mmHg 94%
    07:00 +9°C° 0 mm 2 mps 762 mmHg 88%
    08:00 +12°C° 0 mm 2 mps 762 mmHg 82%
    09:00 +14°C° 0 mm 2 mps 762 mmHg 76%
    10:00 +15°C° 0 mm 2 mps 762 mmHg 71%
    11:00 +16°C° 0 mm 2 mps 762 mmHg 66%
    12:00 +18°C° 0 mm 2 mps 762 mmHg 61%
    13:00 +18°C° 0 mm 2 mps 762 mmHg 61%
    14:00 +18°C° 0 mm 2 mps 762 mmHg 61%
    15:00 +18°C° 0 mm 2 mps 762 mmHg 61%
    16:00 +16°C° 0 mm 2 mps 762 mmHg 65%
    17:00 +14°C° 0 mm 3 mps 762 mmHg 68%
    18:00 +12°C° 0 mm 3 mps 763 mmHg 71%
    19:00 +12°C° 0 mm 2 mps 763 mmHg 72%
    20:00 +10°C° 0 mm 2 mps 763 mmHg 73%
    21:00 +10°C° 0 mm 2 mps 764 mmHg 75%
    22:00 +9°C° 0 mm 2 mps 764 mmHg 76%
    23:00 +9°C° 0 mm 2 mps 764 mmHg 77%

    20 October, Saturday

    Time Temperature Precipitation Wind Pressure Humidity
    00:00 +9°C° 0 mm 2 mps 764 mmHg 78%
    01:00 +8°C° 0 mm 2 mps 764 mmHg 78%
    02:00 +8°C° 0 mm 2 mps 764 mmHg 79%
    03:00 +8°C° 0 mm 2 mps 764 mmHg 80%
    04:00 +7°C° 0 mm 2 mps 765 mmHg 83%
    05:00 +7°C° 0 mm 2 mps 765 mmHg 85%
    06:00 +6°C° 0 mm 2 mps 766 mmHg 88%
    07:00 +8°C° 0 mm 2 mps 766 mmHg 81%
    08:00 +9°C° 0 mm 2 mps 766 mmHg 74%
    09:00 +12°C° 0 mm 2 mps 767 mmHg 68%
    10:00 +13°C° 0 mm 2 mps 767 mmHg 62%
    11:00 +15°C° 0 mm 2 mps 766 mmHg 55%
    12:00 +16°C° 0 mm 2 mps 766 mmHg 49%
    13:00 +16°C° 0 mm 2 mps 766 mmHg 49%
    14:00 +16°C° 0 mm 2 mps 766 mmHg 49%
    15:00 +16°C° 0 mm 2 mps 766 mmHg 50%
    16:00 +14°C° 0 mm 2 mps 766 mmHg 55%
    17:00 +12°C° 0 mm 2 mps 767 mmHg 60%
    18:00 +9°C° 0 mm 2 mps 767 mmHg 66%
    19:00 +9°C° 0 mm 2 mps 767 mmHg 68%
    20:00 +8°C° 0 mm 2 mps 767 mmHg 70%
    21:00 +9°C° 0 mm 1 mps 767 mmHg 73%
    22:00 +8°C° 0 mm 1 mps 767 mmHg 74%
    23:00 +8°C° 0 mm 1 mps 767 mmHg 75%

    21 October, Sunday

    Time Temperature Precipitation Wind Pressure Humidity
    00:00 +8°C° 0 mm 1 mps 767 mmHg 77%
    01:00 +7°C° 0 mm 1 mps 767 mmHg 77%
    02:00 +7°C° 0 mm 1 mps 766 mmHg 77%
    03:00 +7°C° 0 mm 1 mps 766 mmHg 77%
    04:00 +7°C° 0 mm 1 mps 766 mmHg 76%
    05:00 +7°C° 0 mm 1 mps 766 mmHg 76%
    06:00 +6°C° 0 mm 1 mps 766 mmHg 75%
    07:00 +8°C° 0 mm 1 mps 766 mmHg 67%
    08:00 +10°C° 0 mm 1 mps 766 mmHg 60%
    09:00 +12°C° 0 mm 1 mps 766 mmHg 52%
    10:00 +14°C° 0 mm 1 mps 765 mmHg 48%
    11:00 +16°C° 0 mm 1 mps 765 mmHg 44%
    12:00 +16°C° 0 mm 0 mps 765 mmHg 39%
    13:00 +16°C° 0 mm 0 mps 764 mmHg 41%
    14:00 +16°C° 0 mm 0 mps 764 mmHg 43%
    15:00 +16°C° 0 mm 0 mps 763 mmHg 45%
    16:00 +14°C° 0 mm 0 mps 763 mmHg 49%
    17:00 +12°C° 0 mm 0 mps 763 mmHg 54%
    18:00 +10°C° 0 mm 0 mps 764 mmHg 59%
    19:00 +10°C° 0 mm 1 mps 764 mmHg 61%
    20:00 +10°C° 0 mm 1 mps 764 mmHg 63%
    21:00 +9°C° 0 mm 1 mps 764 mmHg 65%
    22:00 +9°C° 0 mm 1 mps 764 mmHg 68%
    23:00 +8°C° 0 mm 1 mps 764 mmHg 71%

    22 October, Monday

    Time Temperature Precipitation Wind Pressure Humidity
    00:00 +8°C° 0 mm 1 mps 764 mmHg 74%
    01:00 +8°C° 0 mm 1 mps 764 mmHg 75%
    02:00 +8°C° 0 mm 1 mps 764 mmHg 77%
    03:00 +9°C° 0 mm 1 mps 765 mmHg 78%
    04:00 +8°C° 0.1 mm 2 mps 765 mmHg 80%
    05:00 +9°C° 0.1 mm 2 mps 765 mmHg 82%
    06:00 +9°C° 0.1 mm 2 mps 766 mmHg 85%
    07:00 +10°C° 0 mm 3 mps 766 mmHg 82%
    08:00 +11°C° 0 mm 4 mps 766 mmHg 80%
    09:00 +11°C° 0 mm 4 mps 767 mmHg 77%
    10:00 +12°C° 0 mm 4 mps 767 mmHg 72%
    11:00 +13°C° 0 mm 4 mps 767 mmHg 67%
    12:00 +13°C° 0 mm 4 mps 767 mmHg 61%
    13:00 +13°C° 0 mm 4 mps 767 mmHg 61%
    14:00 +13°C° 0 mm 4 mps 767 mmHg 60%
    15:00 +12°C° 0 mm 4 mps 767 mmHg 59%
    16:00 +11°C° 0 mm 4 mps 767 mmHg 61%
    17:00 +10°C° 0 mm 3 mps 767 mmHg 63%
    18:00 +10°C° 0 mm 3 mps 767 mmHg 65%
    19:00 +9°C° 0 mm 2 mps 767 mmHg 66%
    20:00 +9°C° 0 mm 2 mps 767 mmHg 67%
    21:00 +8°C° 0 mm 2 mps 768 mmHg 69%
    22:00 +8°C° 0 mm 2 mps 767 mmHg 71%
    23:00 +8°C° 0 mm 2 mps 767 mmHg 73%
    Show more